TimeGMT,TemperatureF,Dew PointF,Humidity,Sea Level PressureIn,VisibilityMPH,Wind Direction,Wind SpeedMPH,Gust SpeedMPH,PrecipitationIn,Events,Conditions,WindDirDegrees,DateUTC
12:03 AM,26.6,26.6,100,30.12,1.0,South,2.3,-,N/A,,Clear,170,2013-01-25 00:03:00
12:05 AM,26.6,26.6,100,30.12,1.2,South,2.3,-,N/A,,Clear,170,2013-01-25 00:05:00
12:07 AM,26.6,26.6,100,30.12,1.5,SSE,2.3,-,N/A,,Clear,160,2013-01-25 00:07:00
12:08 AM,26.6,26.6,100,30.12,1.7,SSE,2.3,-,N/A,,Clear,150,2013-01-25 00:08:00
12:09 AM,26.6,26.6,100,30.12,2.5,SSE,2.3,-,N/A,,Clear,150,2013-01-25 00:09:00
12:10 AM,26.6,26.6,100,30.12,3.1,SSE,2.3,-,N/A,,Clear,150,2013-01-25 00:10:00
12:16 AM,26.6,26.6,100,30.12,5.0,South,2.3,-,N/A,,Clear,170,2013-01-25 00:16:00
12:24 AM,26.6,26.6,100,30.12,5.0,SSW,2.3,-,N/A,,Clear,200,2013-01-25 00:24:00
12:26 AM,26.6,26.6,100,30.13,2.5,SSW,2.3,-,N/A,,Clear,200,2013-01-25 00:26:00
12:27 AM,26.6,26.6,100,30.13,-9999.0,SSW,2.3,-,N/A,,Clear,200,2013-01-25 00:27:00
12:28 AM,26.6,26.6,100,30.12,1.5,SSW,2.3,-,N/A,,Clear,200,2013-01-25 00:28:00
12:29 AM,26.6,26.6,100,30.13,1.2,SSW,2.3,-,N/A,,Clear,200,2013-01-25 00:29:00
12:30 AM,26.6,24.8,93,30.12,1.0,SSW,2.3,-,N/A,,Clear,200,2013-01-25 00:30:00
12:33 AM,24.8,24.8,100,30.12,0.7,SE,1.2,-,N/A,,Clear,140,2013-01-25 00:33:00
12:34 AM,24.8,24.8,100,30.12,0.5,SE,1.2,-,N/A,Fog,Light Freezing Fog,130,2013-01-25 00:34:00
12:50 AM,24.8,24.8,100,30.12,0.7,South,2.3,-,N/A,,Clear,180,2013-01-25 00:50:00
12:51 AM,24.8,24.8,100,30.12,0.7,South,2.3,-,N/A,,Clear,180,2013-01-25 00:51:00
12:53 AM,24.8,24.8,100,30.12,0.7,SSE,1.2,-,N/A,,Clear,160,2013-01-25 00:53:00
12:54 AM,24.8,24.8,100,30.12,1.0,SE,1.2,-,N/A,,Clear,140,2013-01-25 00:54:00
12:56 AM,24.8,24.8,100,30.12,1.2,ESE,1.2,-,N/A,,Clear,110,2013-01-25 00:56:00
12:58 AM,25.5,25.3,99,30.13,1.0,ENE,1.2,-,N/A,,Clear,70,2013-01-25 00:58:00
1:00 AM,24.8,24.8,100,30.12,0.7,Calm,Calm,-,N/A,,Clear,0,2013-01-25 01:00:00
1:01 AM,24.8,24.8,100,30.12,0.7,Calm,Calm,-,N/A,,Clear,360,2013-01-25 01:01:00
1:02 AM,24.8,24.8,100,30.12,0.7,SSE,1.2,-,N/A,,Clear,160,2013-01-25 01:02:00
1:03 AM,24.8,24.8,100,30.12,0.5,South,1.2,-,N/A,Fog,Light Freezing Fog,170,2013-01-25 01:03:00
1:17 AM,23.0,23.0,100,30.11,0.2,SE,2.3,-,N/A,Fog,Light Freezing Fog,130,2013-01-25 01:17:00
1:38 AM,24.8,23.0,93,30.11,0.5,East,2.3,-,N/A,Fog,Light Freezing Fog,100,2013-01-25 01:38:00
1:41 AM,24.8,23.0,93,30.11,0.5,NE,1.2,-,N/A,Fog,Light Freezing Fog,50,2013-01-25 01:41:00
1:42 AM,24.8,23.0,93,30.11,0.7,Calm,Calm,-,N/A,,Clear,360,2013-01-25 01:42:00
1:43 AM,23.0,23.0,100,30.11,0.7,Calm,Calm,-,N/A,,Clear,0,2013-01-25 01:43:00
1:44 AM,23.0,23.0,100,30.11,1.0,Calm,Calm,-,N/A,,Clear,0,2013-01-25 01:44:00
1:45 AM,23.0,23.0,100,30.11,1.5,Calm,Calm,-,N/A,,Clear,20,2013-01-25 01:45:00
1:46 AM,23.0,23.0,100,30.11,-9999.0,SE,1.2,-,N/A,,Clear,130,2013-01-25 01:46:00
1:47 AM,23.0,23.0,100,30.11,3.1,SSE,1.2,-,N/A,,Clear,150,2013-01-25 01:47:00
1:55 AM,23.0,23.0,100,30.11,-9999.0,SE,3.5,-,N/A,,Clear,130,2013-01-25 01:55:00
1:56 AM,23.0,23.0,100,30.11,1.5,SE,3.5,-,N/A,,Clear,140,2013-01-25 01:56:00
1:57 AM,23.0,23.0,100,30.11,1.2,SE,3.5,-,N/A,,Clear,140,2013-01-25 01:57:00
1:58 AM,23.0,23.0,100,30.12,1.2,SSE,3.5,-,N/A,,Clear,150,2013-01-25 01:58:00
2:05 AM,23.0,23.0,100,30.11,1.7,SSE,3.5,-,N/A,,Clear,150,2013-01-25 02:05:00
2:06 AM,23.0,23.0,100,30.11,2.5,SE,3.5,-,N/A,,Clear,140,2013-01-25 02:06:00
2:07 AM,24.8,23.0,93,30.11,3.1,SE,3.5,-,N/A,,Clear,140,2013-01-25 02:07:00
2:09 AM,24.8,23.0,93,30.11,5.0,SE,3.5,-,N/A,,Clear,140,2013-01-25 02:09:00
2:58 AM,23.4,23.0,99,30.12,6.2,SSE,3.5,-,N/A,,Clear,160,2013-01-25 02:58:00
3:13 AM,23.0,21.2,93,30.10,5.0,Calm,Calm,-,N/A,,Clear,360,2013-01-25 03:13:00
3:34 AM,21.2,21.2,100,30.10,5.0,SSW,2.3,-,N/A,,Clear,200,2013-01-25 03:34:00
3:58 AM,20.7,19.8,96,30.12,5.6,SSE,2.3,-,N/A,,Clear,160,2013-01-25 03:58:00
4:09 AM,21.2,21.2,100,30.10,3.7,SE,2.3,-,N/A,,Clear,140,2013-01-25 04:09:00
4:18 AM,21.2,21.2,100,30.09,5.0,SSE,3.5,-,N/A,,Clear,150,2013-01-25 04:18:00
4:58 AM,20.8,19.9,96,30.09,6.2,SSE,2.3,-,N/A,,Clear,150,2013-01-25 04:58:00
5:58 AM,19.8,18.9,96,30.09,6.2,SSE,4.6,-,N/A,,Clear,160,2013-01-25 05:58:00
6:58 AM,19.8,18.9,96,30.10,5.6,ESE,3.5,-,N/A,,Clear,120,2013-01-25 06:58:00
7:58 AM,20.1,19.2,96,30.09,6.2,SE,1.2,-,N/A,,Clear,140,2013-01-25 07:58:00
8:58 AM,21.6,20.8,97,30.07,6.2,SE,4.6,-,N/A,,Clear,140,2013-01-25 08:58:00
9:26 AM,24.8,24.8,100,30.06,6.2,SSE,6.9,-,N/A,,Mostly Cloudy,150,2013-01-25 09:26:00
9:58 AM,26.8,26.6,99,30.06,6.2,SSE,6.9,-,N/A,,Overcast,160,2013-01-25 09:58:00
10:58 AM,30.6,26.8,86,30.04,6.2,SE,6.9,-,N/A,,Overcast,140,2013-01-25 10:58:00
11:58 AM,33.3,25.7,74,30.01,6.2,SSE,11.5,-,N/A,,Overcast,160,2013-01-25 11:58:00
12:58 PM,33.4,26.2,75,29.99,6.2,SSE,12.7,-,N/A,,Overcast,160,2013-01-25 12:58:00
1:58 PM,33.8,27.1,77,29.96,6.2,South,11.5,-,N/A,,Overcast,170,2013-01-25 13:58:00
2:18 PM,33.8,26.6,75,29.93,6.2,South,10.4,-,N/A,,Overcast,180,2013-01-25 14:18:00
2:51 PM,33.8,28.4,81,29.90,6.2,SSE,11.5,-,N/A,,Overcast,150,2013-01-25 14:51:00
2:58 PM,33.6,28.0,80,29.91,6.2,SSE,11.5,-,N/A,,Overcast,150,2013-01-25 14:58:00
3:41 PM,32.0,30.2,93,29.87,6.2,SSE,10.4,-,N/A,,Mostly Cloudy,150,2013-01-25 15:41:00
3:58 PM,32.7,29.7,88,29.88,6.2,SSE,12.7,-,N/A,,Scattered Clouds,150,2013-01-25 15:58:00
4:58 PM,31.3,26.2,82,29.84,6.2,SSE,15.0,-,N/A,,Overcast,150,2013-01-25 16:58:00
5:58 PM,30.2,26.6,86,29.81,6.2,SSE,15.0,21.9,N/A,,Scattered Clouds,160,2013-01-25 17:58:00
6:58 PM,30.2,26.8,87,29.76,6.2,SSE,16.1,-,N/A,,Mostly Cloudy,160,2013-01-25 18:58:00
7:24 PM,32.0,26.6,80,29.74,6.2,SSE,15.0,24.2,N/A,,Mostly Cloudy,160,2013-01-25 19:24:00
7:58 PM,30.9,27.5,87,29.73,6.2,SSE,15.0,-,N/A,,Mostly Cloudy,160,2013-01-25 19:58:00
8:01 PM,32.0,28.4,87,29.71,6.2,South,15.0,-,N/A,,Mostly Cloudy,170,2013-01-25 20:01:00
8:03 PM,32.0,28.4,87,29.71,6.2,SSE,12.7,-,N/A,,Mostly Cloudy,160,2013-01-25 20:03:00
8:33 PM,32.0,28.4,87,29.69,6.2,SSE,13.8,-,N/A,,Mostly Cloudy,150,2013-01-25 20:33:00
8:34 PM,32.0,28.4,87,29.69,6.2,SSE,12.7,-,N/A,,Mostly Cloudy,160,2013-01-25 20:34:00
8:58 PM,31.5,28.4,88,29.68,6.2,SSE,17.3,24.2,N/A,,Overcast,150,2013-01-25 20:58:00
9:32 PM,32.0,30.2,93,29.65,6.2,SSE,16.1,-,N/A,,Overcast,150,2013-01-25 21:32:00
9:58 PM,32.5,30.0,90,29.64,6.2,SSE,16.1,-,N/A,,Overcast,150,2013-01-25 21:58:00
10:12 PM,32.0,32.0,100,29.64,6.2,SSE,12.7,-,N/A,,Overcast,160,2013-01-25 22:12:00
10:58 PM,33.6,31.8,93,29.63,6.2,SSE,11.5,-,N/A,,Overcast,160,2013-01-25 22:58:00
11:23 PM,33.8,32.0,93,29.62,6.2,SSE,9.2,19.6,N/A,,Overcast,160,2013-01-25 23:23:00
11:33 PM,33.8,32.0,93,29.61,6.2,SSE,13.8,-,N/A,,Overcast,150,2013-01-25 23:33:00
11:45 PM,33.8,32.0,93,29.60,5.6,SSE,13.8,-,N/A,,Overcast,150,2013-01-25 23:45:00
11:46 PM,33.8,32.0,93,29.60,5.6,SSE,15.0,-,N/A,,Overcast,150,2013-01-25 23:46:00
11:52 PM,33.8,32.0,93,29.60,5.6,SSE,13.8,-,N/A,,Overcast,150,2013-01-25 23:52:00
11:58 PM,34.5,32.7,93,29.60,6.2,SSE,15.0,-,0.00,,Mostly Cloudy,150,2013-01-25 23:58:00